Weather History for Milwaukee Timmerman, WI

Change the Weather History Date:

Friday, October 19, 2012

  Actual Average Record
Temperature  
Mean Temperature 45 °F -  
Max Temperature 48 °F 56 °F 78 °F (1953)
Min Temperature 42 °F 39 °F 22 °F (1972)
Degree Days  
Heating Degree Days 20    
Moisture  
Dew Point 40 °F    
Average Humidity 84    
Maximum Humidity 93    
Minimum Humidity 71    
Precipitation  
Precipitation 0.00 in - - ()
Sea Level Pressure  
Sea Level Pressure 29.51 in    
Wind  
Wind Speed 5 mph (WNW)    
Max Wind Speed 9 mph    
Max Gust Speed -    
Visibility 10 miles    
Events Rain    
Averages and records for this station are not official NWS values.
T = Trace of Precipitation, MM = Missing Value Source: NWS Daily Summary

Daily Weather History Graph

Daily Weather History Graph

Search for Another Location

Airport:

Trip Planner

Search our weather history database for the weather conditions in past years. The results will help you decide how hot, cold, wet, or windy it might be!

Date:

Astronomy

Oct. 19, 2012 Rise Set
Actual Time 7:11 AM CDT 6:02 PM CDT
Civil Twilight 6:42 AM CDT 6:30 PM CDT
Nautical Twilight 6:09 AM CDT 7:03 PM CDT
Astronomical Twilight 5:36 AM CDT 7:36 PM CDT
Moon 11:59 AM CDT 9:34 PM CDT
Length of Visible Light 11h 48m
Length of Day
10h 50m
Waxing Crescent, 24% of the Moon is Illuminated
Oct 19
Waxing Crescent
Oct 21
First Quarter
Oct 29
Full
Nov 6
Last Quarter
Nov 13
New

Hourly Weather History & Observations

Time (CDT) Temp. Windchill Dew Point Humidity Pressure Visibility Wind Dir Wind Speed Gust Speed Precip Events Conditions
1:15 AM 42.8 °F 38.6 °F 37.4 °F 81% 29.45 in 10.0 mi South 6.9 mph - N/A   Overcast
1:35 AM 42.8 °F 38.0 °F 37.4 °F 81% 29.45 in 10.0 mi SSE 8.1 mph - N/A   Overcast
1:55 AM 42.8 °F 39.3 °F 37.4 °F 81% 29.45 in 10.0 mi South 5.8 mph - N/A   Overcast
2:15 AM 42.8 °F 38.0 °F 37.4 °F 81% 29.45 in 10.0 mi SSE 8.1 mph - N/A   Overcast
2:35 AM 42.8 °F 38.6 °F 39.2 °F 87% 29.45 in 10.0 mi SSE 6.9 mph - N/A   Drizzle
2:55 AM 42.8 °F 39.3 °F 39.2 °F 87% 29.45 in 10.0 mi SSE 5.8 mph - N/A Rain Rain
3:15 AM 42.8 °F 39.3 °F 39.2 °F 87% 29.45 in 10.0 mi SSE 5.8 mph - N/A   Overcast
3:35 AM 42.8 °F 40.1 °F 39.2 °F 87% 29.45 in 10.0 mi SE 4.6 mph - N/A   Overcast
3:55 AM 42.8 °F 40.1 °F 39.2 °F 87% 29.45 in 10.0 mi SSE 4.6 mph - N/A   Overcast
4:15 AM 42.8 °F 41.1 °F 39.2 °F 87% 29.45 in 10.0 mi SSE 3.5 mph - N/A   Overcast
4:35 AM 42.8 °F 40.1 °F 39.2 °F 87% 29.44 in 10.0 mi SSE 4.6 mph - N/A   Overcast
4:55 AM 42.8 °F 41.1 °F 39.2 °F 87% 29.45 in 10.0 mi SSE 3.5 mph - N/A   Mostly Cloudy
5:15 AM 42.8 °F - 39.2 °F 87% 29.45 in 10.0 mi Calm Calm - N/A   Overcast
5:35 AM 42.8 °F - 39.2 °F 87% 29.45 in 10.0 mi Calm Calm - N/A   Overcast
5:55 AM 42.8 °F - 39.2 °F 87% 29.46 in 10.0 mi Calm Calm - N/A   Overcast
6:15 AM 42.8 °F - 39.2 °F 87% 29.46 in 10.0 mi Calm Calm - N/A   Overcast
6:35 AM 42.8 °F - 39.2 °F 87% 29.46 in 10.0 mi Calm Calm - N/A   Overcast
6:50 AM 42.8 °F - 39.2 °F 87% 29.46 in 10.0 mi Calm Calm - N/A   Overcast
6:55 AM 42.8 °F - 39.2 °F 87% 29.46 in 10.0 mi Calm Calm - N/A   Overcast
7:50 AM 42.8 °F - 41.0 °F 93% 29.48 in 10.0 mi Calm Calm - N/A   Overcast
8:45 AM 44.6 °F - 41.0 °F 87% 29.48 in 10.0 mi Calm Calm - N/A   Overcast
9:45 AM 46.4 °F 44.3 °F 41.0 °F 81% 29.49 in 10.0 mi NNW 4.6 mph - N/A   Overcast
10:45 AM 46.4 °F 44.3 °F 41.0 °F 81% 29.49 in 10.0 mi North 4.6 mph - N/A   Overcast
11:50 AM 48.2 °F - 41.0 °F 76% 29.50 in 10.0 mi NNW 8.1 mph - N/A   Overcast
12:45 PM 48.2 °F - 39.2 °F 71% 29.50 in 10.0 mi NNW 5.8 mph - N/A   Overcast
1:45 PM 48.2 °F - 39.2 °F 71% 29.50 in 10.0 mi North 5.8 mph - N/A   Overcast
2:45 PM 48.2 °F - 39.2 °F 71% 29.50 in 10.0 mi NNW 8.1 mph - N/A   Overcast
3:45 PM 48.2 °F - 39.2 °F 71% 29.53 in 10.0 mi NW 9.2 mph - N/A   Overcast
4:50 PM 48.2 °F - 41.0 °F 76% 29.54 in 10.0 mi NW 8.1 mph - N/A   Overcast
5:50 PM 46.4 °F 42.9 °F 42.8 °F 87% 29.57 in 10.0 mi North 6.9 mph - N/A   Overcast
6:50 PM 46.4 °F 43.5 °F 42.8 °F 87% 29.58 in 7.0 mi North 5.8 mph - N/A Rain Light Rain
7:45 PM 46.4 °F 43.5 °F 42.8 °F 87% 29.60 in 10.0 mi NW 5.8 mph - N/A   Overcast
8:45 PM 46.4 °F 44.3 °F 42.8 °F 87% 29.61 in 10.0 mi WNW 4.6 mph - N/A   Overcast
9:15 PM 44.6 °F 42.2 °F 41.0 °F 87% 29.61 in 10.0 mi WNW 4.6 mph - N/A   Overcast
9:35 PM 42.8 °F 40.1 °F 41.0 °F 93% 29.61 in 10.0 mi West 4.6 mph - N/A   Scattered Clouds
9:55 PM 44.6 °F 41.4 °F 41.0 °F 87% 29.62 in 10.0 mi West 5.8 mph - N/A   Mostly Cloudy
10:15 PM 44.6 °F 41.4 °F 41.0 °F 87% 29.62 in 10.0 mi WNW 5.8 mph - N/A   Overcast
10:35 PM 44.6 °F 40.7 °F 41.0 °F 87% 29.62 in 10.0 mi WNW 6.9 mph - N/A   Overcast
10:55 PM 44.6 °F 41.4 °F 41.0 °F 87% 29.62 in 10.0 mi West 5.8 mph - N/A   Overcast
11:15 PM 44.6 °F 41.4 °F 41.0 °F 87% 29.62 in 10.0 mi West 5.8 mph - N/A   Overcast
11:35 PM 44.6 °F 40.2 °F 41.0 °F 87% 29.63 in 10.0 mi West 8.1 mph - N/A   Overcast
11:55 PM 44.6 °F 40.7 °F 41.0 °F 87% 29.63 in 10.0 mi WNW 6.9 mph - N/A   Overcast